Location: Alderney
(49.7170°N, 2.2000°W)
Time: 09:07:36
(UTC+01:00)

N. Korean satellite - Visible Passes

Search period start: 22 October 2017 00:00
Search period end: 31 October 2017 23:00
Orbit: 459 x 517 km, 97.2° (Epoch: 21 October)

Date Brightness Start Highest point End Pass type
(mag) Time Alt. Az. Time Alt. Az. Time Alt. Az.
22 Oct 8.7 19:44:22 10° SSW 19:47:26 28° W 19:50:30 10° NW visible
23 Oct 9.9 07:07:32 10° NE 07:09:50 16° E 07:12:07 10° SE visible
23 Oct 7.3 19:20:34 10° S 19:24:00 53° W 19:27:24 10° NNW visible
24 Oct 6.4 18:57:09 10° SSE 19:00:37 78° ENE 19:04:05 10° N visible
25 Oct 6.9 18:34:03 10° SE 18:37:19 40° ENE 18:40:35 10° N visible
25 Oct 9.7 20:08:50 10° SW 20:11:03 16° W 20:13:16 10° NW visible
26 Oct 8.7 19:44:29 10° SSW 19:47:31 28° W 19:50:34 10° NW visible
27 Oct 9.8 07:07:34 10° NE 07:09:55 17° E 07:12:17 10° SE visible
27 Oct 7.3 19:20:40 10° S 19:24:04 53° W 19:27:28 10° NNW visible
28 Oct 6.3 18:57:13 10° SSE 19:00:40 79° ENE 19:04:08 10° N visible
29 Oct 6.9 17:34:06 10° SE 17:37:21 40° ENE 17:40:38 10° N visible
29 Oct 9.7 19:08:56 10° SW 19:11:06 16° W 19:13:16 10° NW visible
30 Oct 8.7 18:44:32 10° SSW 18:47:33 28° W 18:50:35 10° NW visible
31 Oct 9.8 06:07:32 10° NE 06:09:58 17° E 06:12:24 10° SE visible
31 Oct 7.3 18:20:42 10° S 18:24:04 52° W 18:27:29 10° NNW visible
